Temperature
13 15 15 14 14 15 15 15 14 15 16 17 17 17 18 19 19 18 17 17 16 16 15 14 13 12 11 11 11 11 10 10 10 10 10 10 10 10 9 9 9 8 8 7
12 14 15 15 15 15 15 15 15 15 16 18 18 19 19 19 19 18 18 17 17 16 15 14 13 12 12 11 11 10 10 10 10 9 9 9 9 9 9 9 8 8 7 7
11 13 14 13 14 15 15 15 15 15 16 17 17 17 18 18 18 18 17 17 16 16 15 15 14 13 12 11 11 10 10 9 9 9 9 9 9 8 8 8 8 7 7 6
10 11 10 12 15 15 15 16 16 16 16 16 17 18 18 18 18 17 17 16 16 15 15 14 14 13 12 11 10 10 9 9 9 8 8 8 8 8 8 8 7 7 6 6
9 10 11 14 15 15 15 15 16 16 16 16 18 17 17 17 17 17 16 16 15 15 15 14 13 12 11 11 10 9 9 9 8 8 8 8 7 7 7 7 7 6 6 5
9 9 10 13 15 16 15 13 15 15 15 15 15 13 13 16 16 16 15 15 15 14 14 13 12 12 11 10 9 9 9 8 8 7 7 7 7 7 6 6 6 6 5 5
8 9 11 15 15 15 13 13 16 16 16 15 13 14 15 15 15 15 14 14 14 13 13 12 12 11 10 10 9 9 8 7 7 7 6 6 6 6 5 5 5 5 4 4
9 9 10 13 13 13 14 16 17 17 17 16 16 15 15 14 14 14 13 13 13 12 12 11 11 11 10 9 8 8 7 7 6 6 6 5 5 5 5 4 4 4 4 3
10 11 13 13 14 15 17 16 16 16 16 16 15 14 14 13 13 12 12 12 12 12 11 11 10 10 9 8 8 7 6 6 5 5 5 4 4 4 4 4 3 3 3 2
11 12 12 14 15 15 16 16 16 16 16 15 14 14 13 12 12 12 11 11 11 11 11 10 9 9 9 8 7 7 6 5 5 5 4 4 3 3 3 3 3 2 2 1
11 12 12 13 14 15 15 15 15 15 15 15 14 13 13 12 11 11 11 11 10 10 10 9 9 8 8 7 7 6 6 5 4 4 4 3 3 3 3 2 2 1 1 1
10 12 12 12 14 14 14 14 15 14 14 14 14 13 12 12 11 11 11 10 10 9 9 8 8 7 7 6 6 6 5 5 4 3 3 3 2 2 2 1 1 1 0 -0
12 12 13 13 14 14 14 14 14 14 14 13 13 13 12 11 11 10 10 10 9 9 8 8 7 7 6 5 5 5 4 4 3 3 2 2 2 1 1 1 0 -0 -1 -1
12 12 12 13 13 13 13 13 13 13 12 12 12 11 11 11 10 10 9 9 8 8 7 7 6 6 5 5 4 4 4 3 3 2 2 1 1 0 0 -0 -1 -1 -2 -2
11 11 12 12 12 12 12 12 12 11 11 11 10 10 10 10 9 9 8 8 7 7 6 6 5 5 4 4 3 3 3 2 2 1 1 1 0 -0 -1 -1 -2 -3 -3 -3
10 10 11 11 11 11 11 11 11 10 10 10 9 9 9 9 9 8 7 7 6 6 5 5 4 4 3 3 3 2 2 1 1 1 0 -0 -1 -1 -2 -3 -3 -4 -4 -5
9 8 9 9 10 10 10 11 11 10 9 9 9 8 8 8 7 6 5 5 5 5 4 4 3 3 2 2 2 1 1 1 0 -0 -1 -1 -2 -2 -3 -4 -5 -5 -6 -6
10 10 11 11 10 10 9 9 9 9 9 8 8 7 7 7 6 5 5 4 4 3 3 2 2 2 2 1 1 1 0 -0 -1 -1 -2 -2 -3 -4 -5 -5 -6 -6 -7 -7
9 10 10 10 10 9 9 8 8 8 7 7 7 6 6 6 5 4 4 3 3 2 2 1 1 1 1 0 0 -0 -1 -1 -2 -2 -3 -4 -5 -5 -6 -6 -7 -7 -8 -8
8 8 9 8 8 8 8 7 7 6 6 6 6 5 4 4 4 3 3 2 2 2 1 1 0 0 -0 -0 -1 -1 -2 -2 -3 -4 -4 -5 -6 -6 -7 -7 -8 -8 -9 -9
7 7 7 7 6 6 6 6 6 5 5 5 5 4 4 3 2 2 2 1 0 0 0 -0 -0 -1 -1 -2 -2 -2 -3 -4 -4 -5 -6 -6 -7 -7 -8 -8 -9 -9 -10 -10
5 5 5 5 4 3 3 4 4 4 4 3 3 3 2 1 1 1 1 0 -0 -1 -1 -1 -1 -2 -2 -3 -3 -3 -4 -5 -5 -6 -6 -7 -8 -8 -9 -9 -9 -10 -10 -10
3 3 3 3 3 2 2 2 2 2 2 2 2 1 1 1 0 0 -0 -1 -1 -1 -2 -2 -2 -3 -3 -4 -4 -4 -5 -6 -6 -7 -7 -8 -9 -9 -9 -10 -10 -10 -10 -11
1 1 1 1 1 1 0 -0 0 0 0 0 0 0 0 -0 -1 -1 -1 -2 -2 -2 -2 -3 -3 -4 -4 -4 -5 -6 -6 -7 -7 -8 -8 -9 -9 -10 -10 -10 -10 -11 -11 -11
-1 -1 -1 -1 -1 -1 -1 -1 -1 -1 -1 -1 -1 -1 -1 -1 -1 -2 -2 -2 -3 -3 -3 -4 -4 -5 -5 -6 -6 -7 -7 -8 -8 -9 -9 -9 -10 -10 -10 -10 -11 -11 -11 -11
-3 -3 -3 -3 -2 -2 -2 -2 -2 -2 -1 -2 -2 -2 -2 -2 -2 -3 -3 -3 -4 -4 -4 -5 -5 -6 -6 -7 -7 -8 -8 -8 -9 -9 -9 -10 -10 -10 -10 -11 -11 -11 -11 -11
-5 -4 -4 -4 -4 -3 -3 -3 -2 -2 -2 -2 -3 -3 -3 -3 -3 -4 -4 -4 -5 -5 -5 -6 -6 -7 -7 -8 -8 -8 -9 -9 -9 -10 -10 -10 -10 -11 -11 -11 -11 -11 -11 -11
Wind_Speed
12 10 16 19 20 22 23 19 14 14 15 12 9 9 9 9 9 8 8 9 10 9 9 9 10 10 10 10 11 11 11 11 11 11 10 10 11 11 10 10 10 9 9 8
14 14 11 13 19 21 23 20 19 15 15 9 7 5 5 6 6 6 7 8 9 9 9 10 10 10 10 10 10 10 11 10 10 10 10 11 11 11 10 9 9 9 9 8
12 13 10 14 18 19 18 19 19 20 16 9 9 8 7 6 6 6 6 6 8 9 9 9 10 10 11 10 10 11 10 10 10 11 11 10 11 11 10 10 9 8 8 8
7 9 13 11 11 15 16 17 17 15 11 10 10 8 6 6 6 6 7 7 7 7 8 7 8 9 9 9 10 10 10 10 10 11 10 10 10 10 9 8 8 8 7 8
5 8 8 7 12 16 17 17 15 15 13 11 8 4 5 5 5 5 5 6 6 6 7 7 8 9 10 9 9 10 10 10 10 11 11 11 10 10 7 7 6 6 7 7
6 7 10 8 10 10 9 13 13 13 13 12 9 8 7 5 5 6 7 7 6 6 7 7 8 9 10 9 9 9 9 9 9 10 10 10 9 7 6 6 6 6 5 6
9 7 8 6 9 12 10 10 9 13 13 11 12 9 7 8 7 8 9 8 8 8 7 7 8 9 9 9 8 8 8 9 9 9 9 8 7 6 6 5 5 5 5 5
11 8 8 5 10 12 6 3 5 7 9 10 9 10 10 10 9 9 9 8 8 8 7 7 8 10 9 8 8 9 9 9 8 8 7 7 7 6 6 6 5 5 4 5
10 9 4 9 8 7 4 4 4 4 6 10 10 10 10 9 9 9 9 8 8 9 9 7 7 9 10 8 9 10 9 9 8 8 6 6 6 6 5 5 4 4 4 4
6 8 8 8 6 5 3 4 5 6 7 9 10 11 11 10 9 9 8 8 8 9 9 8 8 9 9 9 9 10 9 8 7 7 6 5 4 4 4 4 4 4 4 5
8 6 7 9 9 7 5 6 6 6 6 9 11 11 11 10 10 9 8 7 8 9 10 9 9 9 9 9 9 10 9 7 6 5 5 4 3 3 4 4 5 5 5 5
7 6 5 7 8 8 7 8 8 8 6 7 9 11 10 10 9 9 9 9 9 10 10 10 10 9 8 8 9 9 8 6 5 4 4 3 2 1 2 4 6 8 8 7
6 5 4 5 6 7 8 8 8 9 9 9 8 10 11 10 9 10 10 10 10 10 10 10 10 9 7 7 8 8 7 6 4 4 3 2 2 2 2 4 6 8 10 12
5 3 4 5 6 6 7 8 8 8 8 9 9 11 12 11 11 11 10 10 10 11 11 10 10 8 7 8 8 8 7 6 5 3 2 2 2 2 2 3 4 4 7 12
7 6 6 4 4 5 6 9 11 10 10 10 10 11 13 13 12 11 10 11 11 11 10 10 10 8 7 8 8 7 5 4 3 2 1 1 1 2 2 4 4 5 4 6
6 4 5 6 7 7 8 10 11 11 11 11 11 11 12 13 13 12 10 10 12 11 10 10 9 7 7 7 7 5 4 4 2 1 0 1 1 2 3 4 5 5 6 6
8 8 7 8 9 9 9 9 11 12 12 12 13 14 15 15 14 12 11 10 11 10 9 9 8 7 7 6 6 4 3 2 1 0 1 2 2 3 4 4 5 6 6 8
11 11 10 11 11 10 10 10 11 12 12 13 15 15 15 15 15 13 12 12 12 11 9 8 8 7 6 5 5 3 2 1 0 1 2 2 3 4 4 5 6 7 6 8
8 8 8 8 9 10 11 11 12 13 14 15 15 14 13 13 13 13 12 12 12 10 6 7 9 7 5 5 4 2 1 0 1 2 3 5 5 4 4 5 6 7 7 7
7 7 9 9 10 11 13 14 14 14 13 14 16 16 15 13 12 12 12 10 6 6 7 7 6 5 4 3 3 1 0 1 2 3 3 3 4 5 5 6 6 7 7 7
11 12 13 14 13 13 13 15 16 16 14 14 15 16 15 13 11 11 11 9 6 7 7 7 5 4 3 2 2 1 1 2 2 3 3 4 5 5 6 6 7 8 8 8
12 14 15 16 16 15 12 13 15 17 16 15 15 15 15 13 11 10 9 7 6 7 5 4 3 3 2 3 1 1 2 2 3 3 3 4 5 6 6 7 7 8 8 8
13 15 16 17 17 17 16 14 15 15 16 15 14 14 13 10 8 8 7 5 5 6 4 3 3 3 4 2 1 2 2 3 3 3 4 5 5 6 7 8 8 8 8 8
15 16 16 17 18 19 18 15 15 14 15 14 12 12 11 10 8 7 7 8 7 6 3 3 3 4 5 2 2 2 2 3 4 4 5 5 6 6 7 8 8 8 9 10
17 17 18 18 17 15 16 17 16 15 14 12 12 11 9 7 7 6 6 5 6 5 3 3 5 5 3 2 2 3 3 4 6 6 5 5 6 7 8 8 9 9 10 10
16 14 13 13 13 13 12 12 12 11 11 11 9 8 8 7 7 6 5 4 4 4 3 2 2 3 2 3 3 4 4 5 6 6 6 7 8 9 9 9 11 10 10 10
16 14 14 13 12 11 10 11 11 10 9 10 9 7 7 6 6 5 5 4 3 3 2 2 2 2 3 3 4 4 5 5 6 6 7 7 8 8 9 10 10 10 10 11
Wind_Direction
235 222 190 199 207 212 216 219 223 228 231 228 216 204 201 198 197 193 184 182 181 180 179 177 177 178 177 176 171 168 168 170 171 167 164 161 160 159 157 158 161 161 162 167
239 241 228 212 210 213 219 223 230 238 240 233 242 230 216 207 194 196 199 190 181 177 177 178 178 177 174 172 169 165 168 170 164 162 161 161 160 156 155 157 158 160 168 172
227 231 236 234 217 215 219 222 224 232 235 234 246 242 231 217 207 205 198 188 180 177 179 177 175 173 173 168 162 164 166 163 161 160 161 161 157 155 159 163 163 169 175 179
213 208 223 232 205 214 224 226 223 229 225 220 228 232 220 201 202 204 188 175 172 166 166 164 161 160 157 156 158 160 161 161 160 158 159 156 158 162 165 166 170 175 182 186
205 208 236 231 201 202 215 233 222 223 223 220 216 229 236 202 187 186 167 149 143 144 146 147 149 150 146 148 151 156 161 160 159 158 158 159 164 167 165 165 171 176 180 186
206 205 219 217 190 181 193 241 222 214 215 208 185 212 228 178 152 134 117 111 114 117 120 130 139 138 140 146 150 159 159 154 152 153 156 161 163 162 159 162 169 172 184 196
209 216 242 224 170 146 183 229 205 202 205 194 194 198 158 128 115 113 111 110 108 108 113 124 128 129 135 139 149 145 137 136 139 144 149 152 152 152 152 156 163 179 197 212
201 207 228 185 153 172 198 173 167 177 184 177 162 136 130 126 123 120 118 116 114 109 106 107 117 125 128 133 130 124 125 128 131 134 139 144 147 152 156 160 174 194 210 229
198 211 197 171 186 196 158 146 140 138 137 140 139 142 138 137 135 132 129 124 118 117 110 102 109 120 125 125 121 121 121 124 126 126 131 141 150 157 162 168 182 203 212 231
209 215 199 196 198 199 180 146 132 132 133 136 141 144 142 141 138 134 128 127 125 122 118 112 107 109 117 120 120 121 123 125 127 131 137 140 143 153 164 181 194 209 223 237
230 211 187 208 206 192 171 138 125 124 135 145 142 144 146 144 142 138 132 128 126 126 122 116 110 108 112 118 121 121 121 123 125 128 133 138 147 169 182 200 201 210 224 228
224 205 201 212 203 186 172 170 160 147 138 139 145 145 141 140 139 135 133 129 126 124 121 117 113 111 111 114 118 121 124 125 126 128 131 139 152 197 236 235 247 249 252 256
241 232 233 217 198 192 187 178 165 158 154 146 139 137 136 134 132 130 130 131 130 127 123 119 115 111 108 108 111 116 123 125 124 129 139 155 170 193 256 286 273 272 275 280
251 245 240 219 202 188 175 162 144 135 134 134 132 129 127 125 126 128 131 131 125 121 119 118 114 110 107 105 106 108 112 118 126 136 148 167 194 217 232 257 280 283 282 284
240 228 216 201 159 146 139 134 131 134 131 124 124 128 131 132 130 126 123 121 118 115 116 116 114 109 104 104 106 108 110 115 117 121 133 182 230 249 258 264 270 278 283 288
217 204 179 174 167 157 149 147 148 149 142 134 130 128 125 122 119 117 117 121 123 122 119 115 112 107 102 102 102 101 104 113 113 120 162 259 263 264 269 272 276 280 282 283
193 199 194 184 178 174 169 162 157 151 143 137 132 126 123 121 117 114 108 104 106 106 108 111 110 103 98 99 100 102 102 106 106 143 236 251 258 263 267 272 277 281 281 291
207 199 192 182 175 167 157 147 142 139 137 133 130 129 130 130 128 123 118 111 104 96 91 99 103 99 94 92 93 94 96 107 184 242 257 263 274 269 274 278 282 286 290 297
195 182 177 170 162 152 144 136 132 128 128 131 130 127 123 121 122 122 119 116 115 112 106 104 106 100 97 93 89 86 88 272 275 272 270 286 294 284 283 283 285 288 292 293
172 154 140 130 127 129 129 126 125 124 126 125 121 118 116 116 117 114 107 98 98 113 117 109 100 96 94 87 73 75 292 273 276 282 283 280 282 284 285 287 288 288 289 289
142 129 122 118 113 113 120 125 126 123 120 120 122 121 119 114 111 111 111 105 94 96 102 102 98 97 91 61 22 337 292 286 287 286 287 288 290 291 290 290 291 294 295 295
128 125 121 118 115 111 109 112 116 116 114 112 112 114 113 110 103 93 89 106 113 101 93 90 93 86 42 9 354 308 298 297 296 294 292 291 292 292 292 293 294 296 296 293
120 120 119 118 117 112 105 104 107 110 111 111 112 113 111 108 107 111 105 99 100 89 83 84 72 31 355 6 345 320 311 305 300 297 293 291 289 290 291 293 292 293 291 291
114 112 112 112 111 110 107 102 100 100 99 97 95 98 102 101 86 79 98 103 95 84 80 63 27 358 355 13 341 321 309 302 294 290 288 287 286 288 289 289 289 289 289 290
110 111 112 114 111 110 110 108 103 100 97 94 87 80 77 84 98 98 93 90 83 73 65 32 7 357 3 340 319 305 298 288 288 291 285 289 290 290 289 289 288 289 290 290
107 107 105 103 107 112 113 111 108 106 105 101 92 85 85 85 89 88 85 80 69 53 48 28 358 346 337 316 305 299 294 299 304 301 293 292 290 289 289 289 288 289 289 288
100 101 101 98 95 97 101 102 104 102 102 105 102 92 89 86 84 79 73 68 57 44 23 359 341 325 312 306 302 298 295 292 291 289 288 287 286 286 287 287 289 289 289 288
Height
1382 1378 1381 1387 1391 1393 1396 1398 1405 1403 1403 1400 1398 1399 1400 1402 1405 1407 1410 1411 1413 1414 1416 1418 1420 1422 1424 1427 1430 1433 1437 1440 1444 1448 1453 1457 1460 1464 1467 1471 1474 1476 1479 1481
1383 1377 1376 1381 1382 1385 1388 1389 1392 1394 1394 1389 1391 1392 1395 1397 1400 1402 1405 1407 1408 1410 1412 1413 1415 1417 1420 1423 1426 1430 1433 1437 1441 1445 1448 1452 1456 1460 1463 1466 1469 1472 1474 1477
1385 1379 1378 1382 1376 1378 1379 1379 1384 1387 1386 1386 1388 1389 1391 1393 1395 1398 1400 1402 1404 1406 1407 1409 1411 1413 1416 1419 1423 1426 1429 1433 1437 1440 1444 1448 1452 1456 1459 1462 1465 1467 1470 1472
1383 1383 1388 1371 1363 1367 1371 1371 1372 1375 1377 1380 1382 1384 1386 1388 1391 1393 1396 1398 1400 1402 1403 1406 1408 1410 1413 1416 1419 1422 1426 1429 1433 1437 1441 1445 1448 1451 1455 1458 1460 1463 1465 1467
1381 1380 1374 1360 1355 1358 1365 1365 1363 1367 1370 1373 1377 1380 1382 1384 1386 1389 1391 1393 1395 1398 1400 1402 1404 1407 1410 1413 1416 1419 1422 1425 1429 1433 1437 1441 1444 1448 1451 1454 1456 1458 1461 1462
1378 1376 1371 1354 1348 1349 1359 1364 1356 1359 1362 1366 1372 1380 1379 1380 1382 1384 1387 1389 1392 1394 1396 1399 1401 1404 1407 1410 1413 1416 1419 1423 1426 1430 1434 1437 1441 1444 1447 1450 1452 1454 1456 1457
1373 1370 1356 1342 1341 1347 1365 1358 1348 1349 1353 1359 1364 1369 1373 1376 1378 1381 1383 1386 1389 1391 1394 1396 1399 1402 1405 1408 1410 1414 1417 1421 1424 1427 1431 1434 1438 1441 1444 1446 1448 1450 1451 1452
1364 1365 1358 1338 1340 1346 1346 1342 1342 1344 1347 1352 1358 1363 1368 1372 1375 1378 1381 1384 1386 1389 1392 1395 1397 1400 1402 1406 1409 1412 1415 1419 1422 1425 1428 1432 1435 1437 1440 1442 1444 1445 1446 1446
1345 1344 1334 1333 1335 1337 1339 1341 1342 1343 1346 1350 1355 1360 1365 1369 1373 1376 1379 1382 1385 1388 1391 1393 1396 1399 1401 1404 1407 1410 1414 1417 1420 1423 1426 1429 1432 1434 1436 1438 1439 1440 1440 1440
1336 1333 1331 1332 1333 1336 1338 1340 1341 1344 1346 1349 1353 1357 1362 1367 1371 1374 1378 1381 1384 1387 1389 1392 1395 1398 1401 1403 1406 1409 1412 1415 1418 1421 1424 1427 1429 1431 1432 1433 1434 1435 1434 1434
1331 1327 1328 1330 1331 1334 1337 1339 1341 1344 1346 1349 1352 1356 1360 1364 1369 1373 1376 1380 1383 1386 1388 1391 1394 1397 1400 1403 1406 1408 1411 1414 1417 1419 1421 1423 1425 1427 1428 1429 1430 1430 1429 1428
1327 1324 1326 1326 1328 1331 1334 1337 1339 1342 1346 1348 1351 1354 1359 1363 1367 1371 1375 1378 1382 1385 1388 1391 1394 1397 1400 1403 1405 1408 1410 1413 1415 1417 1419 1421 1422 1424 1424 1425 1425 1424 1424 1423
1321 1321 1323 1324 1326 1329 1331 1334 1337 1340 1343 1347 1350 1353 1357 1361 1365 1369 1373 1377 1380 1384 1387 1390 1394 1397 1399 1402 1405 1407 1409 1411 1413 1415 1416 1417 1418 1419 1419 1419 1419 1419 1417 1416
1318 1319 1320 1321 1323 1325 1328 1331 1335 1338 1342 1345 1348 1351 1355 1359 1364 1368 1372 1376 1379 1383 1386 1390 1393 1396 1399 1401 1404 1406 1408 1410 1411 1412 1413 1414 1414 1414 1414 1412 1412 1410 1410 1409
1314 1315 1316 1317 1320 1322 1324 1328 1331 1335 1339 1343 1346 1349 1353 1357 1362 1366 1371 1375 1378 1382 1386 1389 1392 1395 1398 1400 1402 1404 1406 1407 1409 1409 1410 1410 1410 1409 1408 1407 1405 1403 1401 1400
1309 1311 1312 1314 1316 1318 1321 1325 1328 1332 1336 1340 1344 1348 1352 1356 1361 1365 1369 1373 1377 1381 1385 1388 1391 1394 1397 1399 1401 1403 1404 1405 1406 1406 1406 1406 1405 1404 1402 1400 1398 1396 1394 1392
1304 1306 1308 1310 1312 1315 1318 1321 1325 1328 1332 1337 1341 1346 1350 1355 1359 1364 1369 1373 1377 1381 1384 1388 1391 1394 1396 1398 1399 1400 1401 1402 1402 1402 1401 1400 1399 1398 1396 1394 1392 1389 1387 1386
1297 1300 1302 1305 1308 1311 1315 1319 1323 1326 1330 1335 1339 1344 1349 1353 1358 1363 1368 1372 1376 1381 1384 1388 1390 1392 1394 1396 1397 1397 1398 1398 1398 1397 1396 1395 1393 1392 1390 1388 1385 1383 1380 1378
1292 1295 1299 1302 1305 1309 1312 1316 1320 1324 1329 1334 1338 1344 1349 1353 1358 1363 1367 1372 1376 1380 1383 1386 1389 1391 1392 1393 1394 1394 1394 1393 1393 1392 1390 1389 1387 1385 1383 1381 1379 1376 1374 1371
1288 1292 1295 1299 1303 1306 1309 1314 1318 1323 1328 1333 1338 1343 1349 1354 1359 1363 1368 1372 1376 1379 1382 1385 1387 1388 1389 1390 1390 1390 1389 1388 1387 1386 1385 1383 1381 1379 1377 1375 1372 1370 1367 1365
1283 1287 1291 1295 1300 1304 1308 1313 1317 1322 1328 1334 1339 1343 1349 1354 1359 1364 1367 1372 1376 1379 1381 1383 1385 1385 1386 1386 1386 1385 1384 1383 1382 1380 1379 1377 1375 1373 1371 1368 1366 1363 1361 1358
1280 1284 1289 1294 1298 1304 1309 1314 1318 1323 1329 1335 1341 1345 1350 1355 1360 1365 1369 1372 1375 1378 1379 1381 1382 1382 1382 1382 1381 1380 1379 1378 1376 1375 1373 1371 1369 1367 1364 1362 1360 1357 1354 1351
1279 1284 1288 1293 1298 1303 1310 1315 1321 1326 1331 1337 1342 1347 1351 1356 1361 1365 1368 1372 1374 1376 1377 1378 1378 1379 1378 1377 1377 1375 1374 1372 1371 1369 1367 1365 1363 1361 1358 1356 1353 1350 1347 1344
1280 1285 1289 1295 1300 1305 1311 1318 1324 1329 1334 1340 1345 1349 1354 1357 1362 1365 1368 1370 1372 1374 1375 1375 1375 1375 1374 1373 1372 1370 1369 1367 1365 1364 1362 1360 1357 1355 1352 1350 1347 1344 1341 1338
1282 1287 1292 1298 1303 1308 1314 1320 1326 1332 1337 1342 1347 1352 1356 1359 1362 1365 1367 1369 1370 1371 1371 1372 1371 1370 1369 1368 1367 1365 1364 1362 1360 1358 1356 1354 1351 1349 1346 1343 1340 1337 1334 1331
1287 1292 1297 1302 1307 1312 1318 1324 1329 1335 1340 1344 1349 1353 1357 1360 1362 1364 1366 1367 1368 1368 1368 1368 1367 1366 1365 1363 1362 1360 1359 1357 1355 1353 1351 1348 1346 1343 1340 1337 1334 1331 1328 1324
1293 1297 1302 1308 1314 1319 1323 1328 1333 1338 1343 1346 1350 1354 1357 1360 1361 1363 1364 1364 1365 1365 1364 1364 1363 1362 1360 1359 1357 1356 1354 1352 1350 1348 1345 1343 1340 1337 1334 1331 1327 1324 1321 1317